SCP
0 0 0 0 0 0 0 0 0 0 0 0 0 0 0 0 0 0 0 0 0 0 0 0 0 0 0 0 0 0 0 0 0 0 0 0 0 0 0 0 0 0 0
0 0 0 0 0 0 0 0 0 0 0 0 0 0 0 0 0 0 0 0 0 0 0 0 0 0 0 0 0 0 0 0 0 0 0 0 0 0 0 0 0 0 0
0 0 0 0 0 0 0 0 0 0 0 0 0 0 0 0 0 0 0 0 0 0 0 0 0 0 0 0 0 0 0 0 0 0 0 0 0 0 0 0 0 0 0
0 0 0 0 0 0 0 0 0 0 0 0 0 0 0 0 0 0 0 0 0 0 0 0 0 0 0 0 0 0 0 0 0 0 0 0 0 0 0 0 0 0 0
0 0 0 0 0 0 0 0 0 0 0 0 0 0 0 0 0 0 0 0 0 0 0 0 0 0 0 0 0 0 0 0 0 0 0 0 0 0 0 0 0 0 0
0 0 0 0 0 0 0 0 0 0 0 0 0 0 0 0 0 0 0 0 0 0 0 0 0 0 0 0 0 0 0 0 0 0 0 0 0 0 0 0 0 0 0
0 0 0 0 0 0 0 0 0 0 0 0 0 0 0 0 0 0 0 0 0 0 0 0 0 0 0 0 0 0 0 0 0 0 0 0 0 0 0 0 0 0 0
0 0 0 0 0 0 0 0 0 0 0 0 0 0 0 0 0 0 0 0 0 0 0 0 0 0 0 0 0 0 0 0 0 0 0 0 0 0 0 0 0 0 0
0 0 0 0 0 0 0 0 0 0 0 0 0 0 0 0 0 0 0 0 0 0 0 0 0 0 0 0 0 0 0 0 0 0 0 0 0 0 0 0 0 0 0
0 0 0 0 0 0 0 0 0 0 0 0 0 0 0 0 0 0 0 0 0 0 0 0 0 0 0 0 0 0 0 0 0 0 0 0 0 0 0 0 0 0 0
0 0 0 0 0 0 0 0 0 0 0 0 0 0 0 0 0 0 0 0 0 0 0 0 0 0 0 0 0 0 0 0 0 0 0 0 0 0 0 0 0 0 0
0 0 0 0 0 0 0 0 0 0 0 0 0 0 0 0 0 0 0 0 0 0 0 0 0 0 0 0 0 0 0 0 0 0 0 0 0 0 0 0 0 0 0
0 0 0 0 0 0 0 0 0 0 0 0 0 0 0 0 0 0 0 0 0 0 0 0 0 0 0 0 0 0 0 0 0 0 0 0 0 0 0 0 0 0 0
0 0 0 0 0 0 0 0 0 0 0 0 0 0 0 0 0 0 0 0 0 0 0 0 0 0 0 0 0 -0 0 0 0 0 0 0 0 0 0 0 0 0 0
0 0 0 0 0 0 0 0 0 0 0 0 0 0 0 0 0 0 0 0 0 0 0 0 0 0 0 0 0 0 0 0 0 0 0 0 0 0 0 0 0 0 0
0 0 0 0 0 0 0 0 0 0 0 0 0 0 0 0 0 0 0 0 0 0 0 0 0 0 -0 0 0 0 0 0 0 0 0 0 0 0 0 0 0 0 0
0 0 0 0 0 0 0 0 0 0 0 0 0 0 0 0 0 0 0 0 0 0 0 0 0 0 -0 -0 -0 0 0 0 0 0 0 0 0 0 0 0 0 0 0
0 0 0 0 0 0 0 0 0 0 0 0 0 0 0 0 0 0 0 0 0 0 0 0 0 0 -0 -0 -0 0 0 0 0 0 0 0 0 0 0 0 0 0 0
0 0 0 0 0 0 0 0 0 0 0 0 0 0 0 0 0 0 0 0 0 0 0 0 0 0 -0 -0 -0 -0 0 0 0 0 0 0 0 0 0 0 0 0 0
0 0 0 0 0 0 0 0 0 0 0 0 0 0 0 0 0 0 0 0 0 0 0 0 0 0 -0 -0 -0 -0 0 0 0 0 0 0 0 0 0 0 0 0 0
0 0 0 0 0 0 0 0 0 0 0 0 0 0 0 0 0 0 0 0 0 0 0 0 0 0 -0 -0 -0 -0 -0 0 0 0 0 0 0 0 0 0 0 0 0
0 0 0 0 0 0 0 0 0 0 0 0 0 0 0 0 0 0 0 0 0 0 0 0 0 0 0 -0 -0 -0 -0 -0 0 0 0 0 0 0 0 0 0 0 0
0 0 0 0 0 0 0 0 0 0 0 0 0 0 0 0 0 0 0 0 0 0 0 0 0 0 0 -0 -0 -0 -0 -0 0 0 0 0 0 0 0 0 0 0 0
0 0 0 0 0 0 0 0 0 0 0 0 0 0 0 0 0 0 0 0 0 0 0 0 0 0 0 -0 -0 -0 -0 -0 0 0 0 0 0 0 0 0 0 0 0
0 0 0 0 0 0 0 0 0 0 0 0 0 0 0 0 0 0 0 0 0 0 0 0 0 0 0 -0 -0 -0 -0 0 0 0 0 0 0 0 0 0 0 0 0
0 0 0 0 0 0 0 0 0 0 0 0 0 0 0 0 0 0 0 0 0 0 0 0 0 0 0 -0 -0 -0 -0 0 0 0 0 0 0 0 0 0 0 0 0
Wind_Speed
5 7 8 9 9 10 12 13 13 12 8 6 5 7 8 9 10 11 15 15 14 14 12 9 9 8 6 5 4 3 3 3 2 2 3 3 3 4 4 3 3 4 4
6 8 8 9 10 10 10 12 12 12 11 6 5 5 5 7 8 9 13 15 15 14 12 12 9 8 7 8 6 4 2 2 2 2 3 4 5 4 2 2 2 3 2
3 4 6 7 8 10 10 9 10 11 11 8 6 6 5 5 7 10 10 13 14 13 13 12 10 10 9 7 7 5 4 2 2 1 2 3 4 5 3 3 2 3 3
2 3 4 6 7 7 7 8 10 11 11 9 11 13 11 9 6 5 6 9 12 13 13 12 11 10 9 9 8 6 4 3 3 2 0 1 1 3 6 4 3 3 4
2 2 3 4 5 5 6 7 9 12 10 11 11 12 11 7 5 5 9 9 9 12 12 11 11 10 8 9 9 8 7 4 3 3 2 2 1 3 4 7 5 4 3
4 3 3 3 4 5 6 6 10 11 9 10 11 12 12 9 9 9 8 7 6 8 11 10 9 9 8 9 8 7 7 6 5 4 3 2 3 2 3 6 7 6 5
5 4 4 4 4 5 5 6 8 9 7 9 10 9 9 9 9 7 7 6 5 6 8 8 7 7 7 7 7 7 7 7 6 5 4 3 4 4 4 6 7 8 5
6 5 5 4 4 5 5 5 7 7 6 7 7 6 7 5 5 5 5 5 3 3 5 6 6 6 6 7 6 5 5 6 5 6 5 4 4 4 4 4 5 9 7
7 7 6 5 5 5 4 5 6 6 5 6 6 6 5 5 5 4 4 3 3 3 4 4 5 5 5 5 5 4 5 5 5 5 5 4 4 4 5 4 4 5 9
8 7 7 6 5 5 4 4 5 5 4 4 4 4 4 4 4 3 4 4 3 3 4 5 5 5 5 5 5 4 5 5 5 4 6 5 4 5 5 5 5 5 7
9 8 7 7 6 5 5 4 4 4 3 3 3 3 3 2 3 3 3 3 3 4 5 5 6 6 6 6 6 6 6 7 7 6 7 7 7 6 5 5 5 6 6
9 8 8 7 6 6 6 5 5 4 4 3 2 2 1 1 1 2 3 3 4 4 4 5 5 6 6 6 6 8 8 8 9 9 9 9 7 8 6 6 7 7 7
9 8 9 9 8 8 7 6 6 6 4 4 3 2 1 1 0 1 2 3 3 4 4 4 5 6 7 7 7 8 9 9 10 10 11 11 10 11 8 8 9 8 9
9 10 10 9 9 8 7 7 6 6 5 4 4 3 3 2 0 1 2 2 3 4 4 5 5 6 8 9 9 10 10 11 11 11 12 12 11 13 11 11 11 9 10
9 10 11 10 9 8 7 7 6 5 5 5 5 4 2 2 2 2 2 2 3 4 5 6 6 7 7 7 11 12 12 13 15 14 13 13 16 20 17 14 11 10 10
10 10 10 10 10 9 8 7 7 6 5 6 5 4 3 3 2 1 2 3 4 4 5 6 7 8 8 16 20 17 14 15 16 17 16 15 16 19 24 26 26 22 16
9 10 10 10 10 9 8 8 8 5 6 6 5 4 4 3 2 1 3 4 5 5 6 6 7 9 11 19 21 22 17 15 14 15 15 14 14 16 16 20 24 23 25
8 8 8 8 8 7 7 6 5 6 6 6 6 5 4 3 1 1 2 4 4 5 6 7 8 10 12 20 22 23 16 14 14 14 15 16 16 16 18 17 17 17 17
8 8 8 8 7 7 7 6 6 6 6 7 7 6 4 3 1 2 2 3 3 5 6 7 7 9 13 19 22 22 12 11 14 14 15 16 17 22 26 20 16 17 16
7 7 7 6 6 7 6 7 7 7 8 7 7 6 4 3 2 2 2 2 4 6 7 8 8 10 11 18 22 22 9 10 12 12 14 18 22 25 27 19 15 17 16
8 8 7 7 8 7 7 8 8 9 7 6 6 5 3 2 2 2 2 3 5 6 6 9 9 9 11 16 21 22 12 11 12 12 12 13 24 28 29 26 18 22 23
8 8 8 9 7 7 8 9 10 6 7 7 6 4 2 1 1 2 3 4 4 6 7 8 9 8 9 13 17 23 23 22 15 13 13 15 27 30 32 26 25 31 27
10 8 9 9 7 7 9 11 7 8 8 6 5 3 3 3 3 3 4 4 4 5 6 6 8 8 8 11 20 22 25 27 18 14 23 28 31 30 22 24 29 23 13
9 8 7 8 9 8 8 7 8 9 8 6 5 4 3 3 3 3 4 4 4 5 6 6 8 9 9 8 9 10 12 17 16 13 16 23 25 23 21 17 15 11 10
8 7 8 11 11 7 7 6 8 8 7 5 4 4 4 4 4 4 5 6 7 8 8 8 8 9 9 11 22 18 12 12 13 14 8 8 10 10 10 10 10 10 10
6 6 8 8 6 7 8 7 7 7 7 5 5 4 3 3 3 4 5 10 12 16 17 17 14 9 15 21 22 23 24 24 22 12 7 9 9 10 11 11 12 11 11
Wind_Direction
14 11 9 5 11 21 28 30 35 28 34 44 49 55 54 47 48 45 40 40 38 39 42 40 38 34 37 33 31 35 26 20 11 337 315 300 267 265 273 280 285 291 302
21 15 13 14 19 24 28 36 37 36 39 47 58 71 76 58 54 48 44 39 39 38 40 39 38 33 36 36 33 35 25 21 22 2 335 328 330 341 325 300 274 292 313
51 20 18 18 21 29 25 38 41 44 43 48 69 74 64 57 44 38 40 36 38 39 40 38 38 34 35 31 23 23 27 4 3 27 348 333 314 319 314 329 310 287 276
71 45 34 30 27 23 22 38 48 50 44 49 68 75 74 69 47 41 44 42 41 39 37 37 37 36 34 28 20 19 14 9 354 345 347 236 270 298 309 308 302 283 271
141 90 59 49 37 29 36 45 58 56 50 57 67 78 78 77 66 53 49 43 39 39 36 36 36 34 32 26 21 19 20 16 3 345 326 307 260 232 262 292 303 307 277
167 133 92 74 58 46 49 55 69 63 56 65 69 77 81 78 69 55 47 39 33 32 30 32 33 31 28 25 18 17 21 17 7 353 340 320 301 295 273 284 297 290 276
178 168 141 109 89 75 68 69 78 72 63 71 72 75 80 77 72 65 54 45 35 27 20 24 25 25 20 19 16 19 15 11 5 353 339 324 298 290 284 286 293 292 286
189 184 169 150 130 112 99 93 91 87 80 80 79 77 80 82 78 72 68 58 45 32 17 20 21 19 17 16 12 14 5 359 351 344 334 320 308 305 296 286 295 299 293
195 189 180 171 159 143 131 123 113 104 95 93 92 83 81 81 80 74 68 61 42 27 20 18 16 10 10 9 4 359 348 340 334 322 314 308 301 299 292 285 274 278 294
197 193 189 185 178 166 152 140 128 123 120 111 103 100 89 83 80 68 51 39 23 16 8 8 4 359 357 356 351 338 327 324 317 307 303 299 296 293 287 282 275 256 263
198 195 194 191 184 176 171 163 155 147 146 139 126 112 98 82 65 49 28 12 3 360 358 352 348 345 343 341 335 325 318 313 307 301 296 292 289 285 282 279 274 267 255
198 194 192 188 188 190 190 189 187 187 188 181 166 149 120 74 39 13 358 354 347 345 340 336 333 330 328 322 317 311 310 302 301 300 294 290 288 281 278 274 271 269 260
198 194 191 193 196 198 198 201 203 207 206 197 194 196 202 219 306 338 347 348 341 336 336 335 328 323 319 314 305 297 295 290 288 288 287 288 286 285 280 272 273 271 271
201 198 198 199 200 200 201 205 213 212 207 201 202 209 211 203 198 19 9 353 345 340 340 333 326 323 321 316 310 310 304 297 292 289 285 284 281 282 282 279 274 273 273
209 203 200 200 200 202 207 210 217 213 202 198 203 205 181 138 100 61 19 352 351 345 335 331 328 327 320 315 318 315 309 305 303 300 296 293 292 289 286 283 280 275 274
216 207 200 198 200 203 207 210 216 212 192 194 196 171 146 128 103 53 2 346 345 340 335 332 327 323 320 317 318 316 311 306 304 304 304 301 296 294 294 292 289 285 281
209 201 198 199 201 203 202 208 213 196 182 187 177 161 150 139 111 14 348 343 337 335 331 324 321 313 309 314 316 314 310 303 301 300 300 299 298 299 295 293 291 288 285
201 199 197 201 206 205 204 205 195 183 182 180 173 163 155 150 133 347 333 330 327 327 319 313 306 302 303 311 313 312 308 301 297 296 296 295 296 294 292 289 285 284 283
197 198 197 197 200 204 200 186 188 183 182 185 179 167 160 160 186 302 312 313 314 309 302 294 298 299 301 307 309 308 303 297 296 294 291 290 289 289 291 290 287 286 286
202 202 199 194 203 210 183 181 194 191 200 191 170 155 155 169 223 267 288 288 297 294 298 299 296 292 290 298 305 309 300 294 291 289 285 284 285 287 289 287 284 282 282
211 205 196 200 212 198 174 194 200 209 195 151 143 151 158 186 230 258 271 287 292 295 293 293 290 284 284 293 302 305 300 292 292 291 290 287 289 289 288 285 279 277 280
219 209 205 219 215 185 180 202 212 189 144 145 152 164 178 220 225 252 273 275 280 289 287 288 290 284 285 290 297 303 304 303 298 295 292 289 291 290 289 287 281 283 286
223 216 211 222 216 191 189 207 197 148 148 152 170 186 212 232 233 243 263 269 262 269 282 285 290 293 289 290 300 303 303 301 299 292 294 297 300 300 298 293 293 291 284
230 225 214 220 224 205 199 195 154 149 149 168 186 199 218 236 235 240 246 246 249 257 266 273 280 286 289 291 293 290 296 301 302 299 302 309 310 308 305 303 300 293 284
235 222 216 225 227 193 180 158 148 147 158 176 193 208 216 228 246 249 241 249 237 236 250 256 263 285 298 301 309 314 312 311 313 326 333 327 319 315 312 309 305 301 294
233 224 223 225 211 172 166 154 152 156 166 188 202 208 216 224 237 256 275 274 274 276 277 282 289 296 301 311 317 321 325 332 336 343 329 319 316 314 314 312 309 304 299